This is the latest recevied weather packets stored in our database for station/object DL8BGD. If no packets are shown the sender has not sent any weather packets the latest 10 day(s).
| Time | Temp. | Humidity | Pressure | Rain* | Wind** | Luminosity | Snow |
|---|---|---|---|---|---|---|---|
| 1788000136 | 23.89° C | 47% | 1022.1 hPa | 0 mm | - | - | - |
| 1787999536 | 24.44° C | 43% | 1022.1 hPa | 0 mm | - | - | - |
| 1787998936 | 24.44° C | 43% | 1022.2 hPa | 0 mm | - | - | - |
| 1787998335 | 24.44° C | 46% | 1022.2 hPa | 0 mm | - | - | - |
| 1787997735 | 23.89° C | 47% | 1022.3 hPa | 0 mm | - | - | - |
| 1787997134 | 22.78° C | 50% | 1022.4 hPa | 0 mm | - | - | - |
| 1787996542 | 21.67° C | 50% | 1022.5 hPa | 0 mm | - | - | - |
| 1787995933 | 21.67° C | 48% | 1022.7 hPa | 0 mm | - | - | - |
| 1787995333 | 22.22° C | 52% | 1022.7 hPa | 0 mm | - | - | - |
| 1787994732 | 21.67° C | 55% | 1022.8 hPa | 0 mm | - | - | - |
| 1787994132 | 21.67° C | 59% | 1023 hPa | 0 mm | - | - | - |
| 1787993533 | 20.56° C | 61% | 1023 hPa | 0 mm | - | - | - |
| 1787992931 | 20° C | 61% | 1023 hPa | 0 mm | - | - | - |
| 1787992331 | 20° C | 61% | 1023.1 hPa | 0 mm | - | - | - |
| 1787991731 | 18.89° C | 66% | 1023.2 hPa | 0 mm | - | - | - |
| 1787991129 | 18.33° C | 69% | 1023.3 hPa | 0 mm | - | - | - |
| 1787990529 | 17.78° C | 68% | 1023.2 hPa | 0 mm | - | - | - |
| 1787989929 | 17.78° C | 70% | 1023.4 hPa | 0 mm | - | - | - |
| 1787989328 | 17.22° C | 71% | 1023.4 hPa | 0 mm | - | - | - |
| 1787988728 | 17.22° C | 73% | 1023.2 hPa | 0 mm | - | - | - |
| 1787988128 | 16.11° C | 81% | 1023.2 hPa | 0 mm | - | - | - |
| 1787987527 | 15.56° C | 85% | 1023.2 hPa | 0 mm | - | - | - |
| 1787986927 | 15° C | 85% | 1023.2 hPa | 0 mm | - | - | - |
| 1787986327 | 15° C | 87% | 1023.2 hPa | 0 mm | - | - | - |
| 1787985726 | 14.44° C | 87% | 1023.2 hPa | 0 mm | - | - | - |
* Rain since midnight (hover to see other rain measurements)
** Current wind speed in m/s (hover to see current wind gust speed)